Flag for Germany Weather past 2 weeks in Rheinberg, North Rhine-Westphalia, Germany

Now
75 °F

Passing clouds.


Feels Like: 78 °F
Forecast: 56 / 75 °F
Wind: 5 mph from North

Location: Duesseldorf

Current Time: Jul 30, 2014 at 3:54:27 PM

Latest Report: Jul 30, 2014 at 3:00 PM


Visibility: 31 mi

Pressure: 29.90 "Hg

Humidity: 51%

Dew point: 56 °F

Location of RheinbergLocation

Historic Weather in Rheinberg — Graph

°F

Rheinberg temperature yesterday

Maximum temperature yesterday: 78 °F (at 3:00 PM)
Minimum temperature yesterday: 63 °F (at 6:00 AM)
Average temperature yesterday: 70 °F

Past Weeks' High & Low Weather Summary

 TemperatureHumidityPressure
High93 °F (Jul 19, 5:00 PM)97% (Jul 26, 7:00 AM)30.19 "Hg (Jul 26, 7:00 AM)
Low56 °F (Jul 26, 6:00 AM)25% (Jul 19, 3:00 PM)29.77 "Hg (Jul 20, 5:00 AM)
Average71 °F70%29.96 "Hg
* Reported Jul 15 3:00 PM — Jul 30 3:00 PM, Rheinberg, Weather by CustomWeather, © 2014

Note: Actual official high and low records may vary slightly from our data, if they occured in-between our weather recording intervals... More about our weather records

Advertising

Rheinberg weather history for previous 24 hours

 ConditionsComfort  
Time TempWeatherWind HumidityBarometerVisibility
3:00 PM
Jul 30
75 °FPassing clouds.5 mph51%29.90 "Hg31 mi
2:00 PM74 °FPassing clouds.6 mph53%29.90 "Hg31 mi
1:00 PM70 °FScattered clouds.6 mph57%29.90 "Hg28 mi
12:00 PM72 °FPartly sunny.6 mph60%29.89 "Hg28 mi
11:00 AM68 °FPartly sunny.5 mph63%29.89 "Hg16 mi
10:00 AM67 °FOvercast.6 mph74%29.89 "Hg14 mi
9:00 AM64 °FOvercast.5 mph83%29.88 "Hg12 mi
8:00 AM64 °FOvercast.3 mph84%29.87 "Hg9 mi
7:00 AM64 °FOvercast.5 mph85%29.86 "Hg9 mi
6:00 AM64 °FOvercast.5 mph86%29.84 "Hg9 mi
4:00 AM66 °FMild.5 mph86%29.83 "HgN/A
3:00 AM67 °FOvercast.5 mph83%29.83 "Hg9 mi
2:00 AM68 °FOvercast.6 mph83%29.83 "Hg12 mi
1:00 AM69 °FOvercast.6 mph79%29.83 "Hg12 mi
12:00 AM67 °FOvercast.3 mph87%29.83 "Hg11 mi
11:00 PM
Jul 29
70 °FOvercast.6 mph73%29.82 "Hg10 mi
10:00 PM72 °FThunderstorms. Overcast.3 mph80%29.80 "Hg9 mi
9:00 PM72 °FOvercast.2 mph81%29.79 "Hg9 mi
8:00 PM73 °FOvercast.2 mph78%29.78 "Hg11 mi
7:00 PM73 °FLight rain. Overcast.1 mph78%29.78 "Hg9 mi
6:00 PM72 °FThunderstorms. Overcast.5 mph75%29.79 "Hg9 mi
4:00 PM78 °FOvercast.3 mph64%29.78 "Hg10 mi
3:00 PM78 °FPartly sunny.6 mph67%29.80 "Hg7 mi
Weather by CustomWeather, © 2014

See weather overviewHow to use our weather pages